OPS 5798 DEB, 903

Orbit data source: Space-Track

OPS 5798 DEB, 903 is space debris in LEO originally from a launch on Tue, 06 Oct 1964 UTC launched from the Air Force Western Test Range (AFWTR). Debris objects in space refer to the collection of defunct objects orbiting the Earth. Examples of debris include non-operational satellites, rocket bodies, and fragments generated from explosions, collisions, or faulty payload assembly.

Loading next visibility...
Identifier
903, 1964-063F
Orbit
LEO
Last TLE update
1 day ago
Origin
Manufacturer
Unknown
Mission
Spacecraft
Bus & Motor
Unknown
Mass
Unknown
Launch date (UTC)
1964-10-06 (61 years ago)
Launch vehicle
Unknown
Launch site
Air Force Western Test Range (AFWTR)
Object type
Payload
Rocket body
Debris
Shape & HBR
Unknown
Radar Cross Section
Small (<0.1 m²)

Expand to show TLE details & history

TLE from 1 day ago
0 OPS 5798 DEB
1 00903U 64063F   25181.66799972  .00000566  00000-0  53390-3 0  9993
2 00903  90.2175  62.8855 0024993  94.2748 320.2374 13.80100712 25879
Epoch: 2025-06-30T16:01Z
TLE epoch observation values (Epoch: 2025-06-30T16:01:55.175Z)
Latitude
54.42371°
Longitude
-96.87139°
Altitude
958.503 km
Speed
7.385 km/s
True Right ascension
04h 10m 19s
True Declination
54° 15' 55"
Sunlit
Object was in daylight at epoch
Visualization orbit readout
Latitude
-38.35423°
Longitude
-96.37302°
Altitude
989.753 km
Speed
7.35 km/s
Apparent Right ascension
00h 41m 54s
Apparent Declination
-78° 06' 24"
Sunlit
Object is in daylight
Visualization observer readout
Local Sidereal Time
05:20:49
Azimuth
193.646° SSW
Elevation
-34.968°
Doppler factor
1
Orbital elements
Apogee altitude
978.877 km
Perigee altitude
942.194 km
Semi-major axis
7,338.673 km
Eccentricity
0.0025
Inclination
90.2175°
RAAN
62.8855°
Arg. of periapsis
94.2748°
True anomaly
Unknown
Mean anomaly
320.2374°
Eccentric anomaly
Unknown
Mean motion
3.45237 °/min
Orbital period
104.28 mins
BSTAR
0.0005339
Loading maneuver chart data...
Loading SW <> Apogee altitude chart data...
Loading historical data...
Loading historical data...
Loading historical data...
Loading historical data...
Loading historical data...
Loading historical data...
Loading historical data...

OPS 5798 DEB Visibility forecast

Observer location: undefined°, undefined°

Span
Click to sort rows by Start time (UTC) header in descending order
Start Az.
Max El. time (UTC)
Max El. Az.
Max El.
End time (UTC)
End Az.
6 mins2025-07-01 18:01:11.314Z250.501° W2025-07-01 18:04:11.314Z281.768° WNW14.752°2025-07-01 18:07:11.314Z313.09° NW
7 mins2025-07-02 03:11:11.314Z41.522° NE2025-07-02 03:14:11.314Z76.081° E19.742°2025-07-02 03:18:11.314Z122.808° SE
9 mins2025-07-02 04:55:11.314Z345.608° N2025-07-02 04:59:11.314Z271.14° WNW38.61°2025-07-02 05:04:11.314Z204.796° SW
5 mins2025-07-02 14:55:11.314Z98.11° ESE2025-07-02 14:57:11.314Z76.516° E15.477°2025-07-02 15:00:11.314Z43.571° NE
10 mins2025-07-02 16:36:11.314Z186.51° SSW2025-07-02 16:41:11.314Z280.582° WNW43.279°2025-07-02 16:46:11.314Z351.65° N
|